Location: Unspecified
(52.4292°N, 19.3359°E)
Time: 20:03:48
(UTC+02:00)

Tiros 1 - Pass Details

Date: 19 May 2024
Orbit: 624 x 657 km, 48.4° (Epoch: 15 June)

Event Time Altitude Azimuth Distance (km) Brightness Sun altitude
Rises 12:42:21 0° 190° (S) 2,966 11.0 57.5°
Reaches altitude 10° 12:46:10 10° 160° (SSE) 2,062 10.4 57.5°
Maximum altitude 12:47:53 12° 138° (SE) 1,941 10.1 57.5°
Drops below altitude 10° 12:49:37 10° 117° (ESE) 2,067 10.1 57.4°
Sets 12:53:27 0° 86° (E) 2,982 10.5 57.4°
